Date String (YYYY-MM-DD hh:mm:ss) UTC,Instrument flags,Ambient pressure (hPa),Sample flow (lpm),Bypass flow (lpm),Sample temperature (°C),Ambient temperature (°C),ASC tube jacket temperature (°C),LED temperature (°C),Box temperature (°C),Sample RH (%),Span deviation,Mass concentration (μg/m³),Mass concentration (μg/m³),Mass concentration (μg/m³)
DateTimeUTC,F1_M11,P_M11,Q1_M11,Q2_M11,T1_M11,T2_M11,T3_M11,T4_M11,T5_M11,U1_M11,ZSPAN_M11,X0_M11,X2_M11,X1_M11
2021-08-30 03:00:00,,0829.3,5.01,0.00,29.5,26.4,00.0,38.6,30.9,35.2,0001.0,0020.48,0012.00,0010.30
2021-08-30 03:01:00,,0828.9,5.00,0.00,29.7,26.9,00.0,38.5,31.1,34.7,0001.0,0018.76,0011.86,0010.24
2021-08-30 03:02:00,,0829.0,4.99,0.00,29.8,27.3,00.0,38.5,31.2,34.4,0001.1,0018.75,0011.75,0010.15
2021-08-30 03:03:00,,0829.4,5.00,0.00,29.9,27.7,00.0,38.5,31.2,34.4,0001.2,0019.38,0011.68,0010.08
2021-08-30 03:04:00,,0829.2,4.99,0.00,30.0,27.9,00.0,38.6,31.3,34.3,0001.2,0019.31,0011.63,0010.05
2021-08-30 03:05:00,,0829.1,5.01,0.00,30.0,28.2,00.0,38.6,31.3,34.5,0001.5,0019.28,0011.56,0009.96
2021-08-30 03:06:00,,0828.9,5.00,0.00,30.0,28.3,00.0,38.7,31.4,34.3,0001.6,0019.29,0011.42,0009.87
2021-08-30 03:07:00,,0828.8,5.00,0.00,30.1,28.5,00.0,38.7,31.4,34.3,0001.7,0019.24,0011.32,0009.78
2021-08-30 03:08:00,,0828.9,5.00,0.00,30.1,28.6,00.0,38.8,31.5,34.3,0001.7,0019.56,0011.15,0009.64
2021-08-30 03:09:00,,0828.9,5.01,0.00,30.1,28.7,00.0,38.8,31.5,34.1,0001.7,0019.82,0010.97,0009.50
2021-08-30 03:10:00,,0828.9,5.00,0.00,30.2,28.6,00.0,38.8,31.5,33.9,0002.1,0019.96,0010.81,0009.41
2021-08-30 03:11:00,,0828.8,5.00,0.00,30.1,27.1,00.0,38.8,31.1,34.2,0001.7,0019.90,0010.72,0009.34
2021-08-30 03:12:00,,0828.9,5.00,0.00,29.9,26.3,00.0,38.9,31.0,34.5,0001.5,0021.34,0010.75,0009.27
2021-08-30 03:13:00,,0828.9,5.00,0.00,29.8,26.4,00.0,38.8,30.9,34.7,0001.3,0022.17,0010.70,0009.22
2021-08-30 03:14:00,,0829.0,5.01,0.00,29.8,26.8,00.0,38.8,31.1,34.9,0001.3,0023.62,0010.72,0009.17
2021-08-30 03:15:00,,0828.8,5.00,0.00,29.9,27.2,00.0,38.8,31.2,34.5,0001.4,0024.47,0010.70,0009.12
2021-08-30 03:16:00,,0828.9,4.99,0.00,30.0,27.6,00.0,38.8,31.3,34.3,0001.6,0024.94,0010.66,0009.10
2021-08-30 03:17:00,,0828.9,5.01,0.00,30.0,27.9,00.0,38.8,31.3,34.3,0002.0,0024.27,0010.60,0009.09
2021-08-30 03:18:00,,0828.8,5.00,0.00,30.0,28.1,00.0,38.8,31.3,34.2,0001.9,0023.88,0010.58,0009.09
2021-08-30 03:19:00,,0828.8,4.99,0.00,30.0,28.3,00.0,38.8,31.4,34.2,0001.9,0023.12,0010.50,0009.07
2021-08-30 03:20:00,,0828.9,5.00,0.00,30.1,28.5,00.0,38.9,31.5,34.2,0002.0,0023.09,0010.44,0009.01
2021-08-30 03:21:00,,0828.8,4.99,0.00,30.1,28.6,00.0,38.9,31.5,34.2,0002.2,0022.71,0010.42,0008.94
2021-08-30 03:22:00,,0828.9,5.01,0.00,30.1,28.7,00.0,38.9,31.6,34.2,0002.1,0022.94,0010.36,0008.88
2021-08-30 03:23:00,,0828.8,5.01,0.00,30.2,28.8,00.0,38.9,31.6,34.2,0002.1,0022.48,0010.29,0008.82
2021-08-30 03:24:00,,0828.9,4.99,0.00,30.2,28.5,00.0,39.0,31.6,34.3,0002.4,0021.24,0010.21,0008.77
2021-08-30 03:25:00,,0828.9,5.00,0.00,30.1,26.8,00.0,38.9,31.1,34.4,0002.5,0020.18,0010.16,0008.73
2021-08-30 03:26:00,,0829.0,5.00,0.00,29.9,25.6,00.0,38.9,30.8,34.7,0002.4,0018.78,0010.07,0008.70
2021-08-30 03:27:00,,0829.1,5.02,0.00,29.8,25.5,00.0,38.9,30.8,35.1,0002.3,0017.89,0009.99,0008.64
2021-08-30 03:28:00,,0829.2,5.00,0.00,29.8,26.0,00.0,38.8,30.9,35.1,0002.1,0018.48,0009.94,0008.56
2021-08-30 03:29:00,,0828.8,4.99,0.00,30.0,26.5,00.0,38.8,31.2,34.5,0001.8,0019.77,0009.86,0008.46
2021-08-30 03:30:00,,0828.9,5.00,0.00,30.2,26.9,00.0,38.8,31.2,34.2,0001.4,0020.71,0009.80,0008.37
2021-08-30 03:31:00,,0828.9,5.00,0.00,30.2,27.3,00.0,38.8,31.3,34.1,0000.9,0021.09,0009.79,0008.32
2021-08-30 03:32:00,,0828.9,5.00,0.00,30.3,27.7,00.0,38.8,31.3,34.1,0000.5,0021.45,0009.72,0008.28
2021-08-30 03:33:00,,0828.9,4.99,0.00,30.3,27.9,00.0,38.8,31.3,34.0,0000.7,0021.94,0009.68,0008.23
2021-08-30 03:34:00,,0828.8,5.00,0.00,30.3,28.1,00.0,38.9,31.4,34.0,0000.8,0021.99,0009.61,0008.17
2021-08-30 03:35:00,,0828.9,5.01,0.00,30.4,28.3,00.0,38.9,31.4,34.0,0000.5,0021.75,0009.56,0008.12
2021-08-30 03:36:00,,0828.9,5.00,0.00,30.4,28.4,00.0,39.0,31.5,34.0,0000.3,0020.86,0009.46,0008.05
2021-08-30 03:37:00,,0829.0,4.99,0.00,30.4,28.5,00.0,39.0,31.5,33.9,0000.3,0021.20,0009.42,0008.01
2021-08-30 03:38:00,,0828.9,5.00,0.00,30.4,28.7,00.0,39.1,31.6,34.0,0000.3,0021.54,0009.40,0007.96
2021-08-30 03:39:00,,0828.9,4.99,0.00,30.4,28.8,00.0,39.1,31.6,33.9,0000.5,0022.20,0009.36,0007.94
2021-08-30 03:40:00,,0828.9,4.99,0.00,30.4,28.8,00.0,39.1,31.7,33.8,0000.7,0021.14,0009.36,0007.95
2021-08-30 03:41:00,,0828.9,5.01,0.00,30.5,28.9,00.0,39.2,31.7,33.7,0001.0,0020.38,0009.33,0007.98
2021-08-30 03:42:00,,0829.0,5.00,0.00,30.5,28.8,00.0,39.2,31.7,33.7,0001.0,0019.96,0009.35,0008.00
2021-08-30 03:43:00,,0828.9,5.00,0.00,30.4,27.1,00.0,39.2,31.3,33.8,0001.1,0020.25,0009.38,0008.01
2021-08-30 03:44:00,,0828.8,4.99,0.00,30.2,25.7,00.0,39.1,31.0,34.0,0001.4,0020.27,0009.41,0008.04
2021-08-30 03:45:00,,0828.8,5.02,0.00,30.0,25.5,00.0,39.1,30.9,34.1,0001.6,0019.77,0009.45,0008.12
2021-08-30 03:46:00,,0828.8,4.98,0.00,29.9,25.9,00.0,39.0,30.9,34.4,0002.0,0020.01,0009.52,0008.18
2021-08-30 03:47:00,,0828.8,5.01,0.00,29.9,26.4,00.0,39.0,31.0,34.5,0002.1,0020.26,0009.57,0008.23
2021-08-30 03:48:00,,0828.8,5.01,0.00,29.8,26.9,00.0,39.0,31.1,34.4,0002.2,0019.95,0009.60,0008.29
2021-08-30 03:49:00,,0828.9,4.99,0.00,29.8,27.3,00.0,38.9,31.1,34.4,0002.0,0020.24,0009.72,0008.39
2021-08-30 03:50:00,,0828.9,5.01,0.00,29.8,27.6,00.0,38.9,31.2,34.4,0001.9,0019.50,0009.77,0008.47
2021-08-30 03:51:00,,0828.8,4.99,0.00,29.8,27.9,00.0,38.9,31.3,34.4,0002.1,0019.35,0009.80,0008.54
2021-08-30 03:52:00,,0828.9,5.01,0.00,29.9,28.1,00.0,38.9,31.3,34.4,0001.9,0020.14,0009.91,0008.61
2021-08-30 03:53:00,,0828.9,4.99,0.00,29.9,28.3,00.0,38.9,31.3,34.3,0002.1,0021.95,0010.02,0008.71
2021-08-30 03:54:00,,0828.9,5.00,0.00,29.9,28.4,00.0,38.9,31.4,34.2,0001.9,0021.08,0010.11,0008.82
2021-08-30 03:55:00,,0828.9,5.01,0.00,29.9,28.5,00.0,38.9,31.4,34.1,0001.9,0020.36,0010.21,0008.93
2021-08-30 03:56:00,,0828.9,5.00,0.00,29.9,28.6,00.0,38.9,31.5,34.1,0001.8,0020.52,0010.26,0008.98
2021-08-30 03:57:00,,0828.9,4.99,0.00,30.0,28.7,00.0,38.9,31.5,34.0,0001.5,0021.13,0010.36,0009.06
2021-08-30 03:58:00,,0828.9,5.00,0.00,30.0,28.8,00.0,38.9,31.6,33.9,0001.6,0021.34,0010.48,0009.16
2021-08-30 03:59:00,,0828.9,5.00,0.00,30.0,28.8,00.0,39.0,31.7,33.9,0001.4,0021.03,0010.55,0009.21
